SARSAT 11 (METOP-A)

Last updated on Mon Jan 10 2022 00:02:29 GMT+0000 (Coordinated Universal Time)

1 29499U 06044A 22009.58595312 .00000298 00000+0 48319-4 0 9995 2 29499 98.4732 49.0014 0199678 145.5726 334.7190 14.66882934787387

Satellite not in orbit

SARSAT 11 (METOP-A)